Location: ??????
(41.3164°N, 22.6615°E)
Time: 13:16:11
(UTC+00:00)

H-2A R/B - Pass Details

Date: 24 May 2022
Orbit: 576 x 653 km, 98.5° (Epoch: 30 June)

Event Time Altitude Azimuth Distance (km) Brightness Sun altitude
Rises 18:34:07 0° 14° (NNE) 2,799 5.8 -7.8°
Reaches altitude 10° 18:36:17 10° 15° (NNE) 1,894 4.9 -8.2°
Maximum altitude 18:40:23 82° 103° (ESE) 588 1.9 -8.8°
Drops below altitude 10° 18:44:28 10° 192° (SSW) 1,891 4.3 -9.4°
Sets 18:46:37 0° 193° (SSW) 2,792 5.2 -9.7°
